Location: Pradons
(44.4746°N, 4.3578°E)
Time: 18:24:18
(UTC+00:00)

Cosmos 1703 - Pass Details

Date: 10 August 2020
Orbit: 523 x 541 km, 82.5° (Epoch: 30 September)

Event Time Altitude Azimuth Distance (km) Brightness Sun altitude
Rises 02:00:22 0° 8° (N) 2,711 7.9 -22.9°
Reaches altitude 10° 02:03:17 10° 31° (NNE) 1,811 7.1 -22.6°
Maximum altitude 02:05:43 16° 69° (ENE) 1,483 6.2 -22.4°
Drops below altitude 10° 02:08:08 10° 107° (ESE) 1,799 6.2 -22.1°
Sets 02:11:01 0° 130° (SE) 2,681 6.8 -21.8°
